COSMOS 2251 DEB, 33916

Orbit data source: Space-Track

COSMOS 2251 DEB, 33916 is space debris in LEO originally from a launch on Wed, 16 Jun 1993 UTC launched from the Plesetsk Missile And Space Complex (PKMTR). The debris from Iridium 33, an American commercial communications satellite, has been tracked extensively since its accidental collision with the defunct Russian satellite Cosmos 2251 in 2009. This event, occurring at high speed in low Earth orbit (LEO), generated thousands of pieces of space debris, significantly increasing the risk of further collisions. The Iridium 33 debris cloud has impacted space traffic management and orbital debris mitigation strategies, making it a subject of ongoing study in space situational awareness.

Loading next visibility...
Identifier
33916, 1993-036DV
Orbit
LEO
Country
Flag of CISCIS
Related business
Manufacturer
Unknown
Mission
Spacecraft
Bus & Motor
Unknown
Mass
Unknown
Launch date (UTC)
1993-06-16 (33 years ago)
Launch vehicle
Unknown
Launch site
Plesetsk Missile And Space Complex (PKMTR)
Object type
Payload
Rocket body
Debris
Shape & HBR
Unknown shape, 0.2 m
Radar Cross Section
Medium (>0.1 m² and <1 m²)

Expand to show TLE details & history
Last TLE update: 12 hours ago

TLE from 12 hours ago
0 COSMOS 2251 DEB
1 33916U 93036DV  26034.24493963  .00000448  00000-0  37782-3 0  9994
2 33916  74.0532 314.3195 0323367 114.7212  37.7046 13.68660758846097
Epoch: 2026-02-03T05:52Z
TLE epoch observation values (Epoch: 2026-02-03T05:52:42.784Z)
Latitude
24.23156°
Longitude
-94.63689°
Altitude
821.036 km
Speed
7.538 km/s
True Right ascension
08h 27m 52s
True Declination
24° 06' 15"
Sunlit
Object was in full shadow at epoch
Visualization orbit readout
Latitude
Unknown
Longitude
Unknown
Altitude
Unknown
Speed
Unknown
Apparent Right ascension
Unknown
Apparent Declination
Unknown
Sunlit
N/A
Visualization observer readout
Local Sidereal Time
19:37:34
Azimuth
Unknown
Elevation
Unknown
Doppler factor
Unknown
Orbital elements
Apogee altitude
1,240.729 km
Perigee altitude
763.425 km
Semi-major axis
7,380.214 km
Eccentricity
0.03234
Inclination
74.0532°
RAAN
314.3195°
Arg. of periapsis
114.7212°
True anomaly
40.04497°
Mean anomaly
37.7046°
Eccentric anomaly
38.86724°
Mean motion
3.42326 °/min
Orbital period
105.16 mins
BSTAR
0.00037782
Loading maneuver chart data...
Computing Atmospheric mass density...

Documentation

Showing up to 5 results
|